Regional Weather Roundup
Issued by NWS

Home | Current Version | Previous Version | Text Only | Print | Product List | Glossary On
Versions: 1 2 3 4 5 6 7 8 9 10 11 12 13 14 15 16 17 18 19 20 21 22 23 24 25 26 27 28 29 30 31 32 33 34 35 36 37 38 39 40 41 42 43 44 45 46 47 48 49 50
196
ASUS43 KLSX 112057
RWRMO

WEATHER SUMMARY FOR MISSOURI
NATIONAL WEATHER SERVICE SPRINGFIELD MO
300 PM CST THU FEB 11 2016

NOTE: "FAIR" INDICATES FEW OR NO CLOUDS BELOW 12,000 FEET WITH NO
       SIGNIFICANT WEATHER AND/OR OBSTRUCTIONS TO VISIBILITY.
       CURRENT SKY AND/OR WEATHER CONDITIONS ARE NOT AVAILABLE FOR
       CHILLICOTHE AND FARMINGTON.

MOZ001>031-035>038-043-044-053-054-112200-
...NORTHERN AND WESTERN MISSOURI...

CITY           SKY/WX    TMP DP  RH WIND       PRES   REMARKS
KANSAS CTY INT CLOUDY    35  21  56 SE6       30.20F
LEE`S SUMMIT   PTSUNNY   35  19  52 E8        30.21F WCI  29
ST JOSEPH      MOSUNNY   33  19  56 VRB7      30.21F WCI  27
CHILLICOTHE      N/A     31  15  52 VRB3      30.26F

$$
MOZ066>068-077>081-088>096-101>105-112200-
...SOUTHWEST MISSOURI...

CITY           SKY/WX    TMP DP  RH WIND       PRES   REMARKS
SPRINGFIELD    SUNNY     48  18  30 VRB5      30.16R

$$
MOZ032>034-039>042-045>050-055>058-069>072-112200-
...CENTRAL MISSOURI...

CITY           SKY/WX    TMP DP  RH WIND       PRES   REMARKS
COLUMBIA       NOT AVBL
JEFFERSON CITY CLOUDY    37  19  48 CALM      30.26S
ROLLA          SUNNY     36  21  54 E5        30.19F
SEDALIA        MOSUNNY   37  18  46 E8        30.24F

$$
MOZ051-052-059>065-112200-
...EAST CENTRAL MISSOURI...

CITY           SKY/WX    TMP DP  RH WIND       PRES   REMARKS
ST LOUIS INTL  PTSUNNY   31  13  47 CALM      30.29F

$$
MOZ072>076-082>087-097>100-106>115-112200-
...SOUTH CENTRAL AND SOUTHEAST MISSOURI...

CITY           SKY/WX    TMP DP  RH WIND       PRES   REMARKS
CAPE GIRARDEAU SUNNY     38  20  48 N9        30.26S
POPLAR BLUFF   SUNNY     40  22  48 NE8       30.23F
WEST PLAINS    SUNNY     44  17  33 CALM      30.17S

$$



USA.gov is the U.S. government's official web portal to all federal, state and local government web resources and services.